[[{"header":{"parameterUnit":"m.s-1","parameterCategory":1,"la1":30.2991,"la2":30.254,"lo1":-89.0895,"lo2":-89.0444,"dy":0.0017,"dx":0.0017,"nx":28,"ny":28,"refTime":"2023-10-05T21:00:00:Z","depth":0,"parameterNumber":2,"parameterNumberName":"U-component_of_WINDS"},"data":[0,0,0,0,0,0,0,0,0,0,0,0,0,0,0,0,0,0,0,0,0,0,0,0,0,0,0,0,0,0,0,0,0,0,0,0,0,0,0,0,0,0,0,0,0,0,0,0,0,0,0,0,0,0,0,0,0,0,-1.4582,-1.4582,0,-1.463,-1.463,-1.4631,-1.4619,-1.4618,-1.4617,-1.4616,-1.4665,-1.4667,-1.4669,0,0,0,0,0,0,0,0,0,0,0,0,0,-1.4479,-1.4481,-1.4582,-1.4582,-1.4583,-1.463,-1.4631,-1.4631,-1.4619,-1.4618,-1.4616,-1.4615,-1.4664,-1.4667,-1.467,0,0,0,0,0,0,0,0,0,0,0,0,0,-1.4525,-1.4481,-1.4582,-1.4582,-1.4583,-1.463,-1.4631,-1.4631,-1.4619,-1.4617,-1.4616,-1.4615,-1.4663,-1.4667,-1.467,-1.4719,0,0,-1.468,-1.4681,0,0,0,0,0,0,0,0,-1.4522,-1.4529,-1.4582,-1.4582,-1.4583,-1.4617,-1.4612,-1.4661,-1.4619,-1.4605,-1.4616,-1.4614,-1.465,-1.4654,-1.4667,-1.4721,-1.4723,-1.468,-1.4682,-1.4684,-1.4685,0,0,0,0,0,0,0,-1.4519,-1.4526,-1.4601,-1.4583,-1.4583,-1.458,-1.4585,-1.4621,-1.4635,-1.4606,-1.4606,-1.4611,-1.465,-1.4663,-1.4668,-1.4724,-1.468,-1.4683,-1.4685,-1.4686,-1.4821,-1.4822,0,0,0,0,0,0,-1.4515,-1.4524,-1.4599,-1.4602,-1.4549,-1.4583,-1.4589,-1.4607,-1.4635,-1.4637,-1.4613,-1.4611,-1.4658,-1.4664,-1.4669,-1.4728,-1.4684,-1.4687,-1.4689,-1.4819,-1.4821,-1.4823,0,0,0,0,0,0,-1.4513,-1.4522,-1.4597,-1.4563,-1.4572,-1.4586,-1.4608,-1.4609,-1.4622,-1.4639,-1.4642,-1.4624,-1.4658,-1.4665,-1.4707,-1.473,-1.4688,-1.4691,-1.4817,-1.482,-1.4822,-1.4847,0,0,0,0,0,0,-1.451,-1.4521,-1.454,-1.4563,-1.4574,-1.4634,-1.4609,-1.4611,-1.4628,-1.4626,-1.465,-1.4653,-1.4657,-1.4702,-1.471,-1.4734,-1.4694,-1.4815,-1.4818,-1.4821,-1.4844,-1.485,-1.4855,0,0,0,0,0,-1.4507,-1.4546,-1.4541,-1.4551,-1.4598,-1.4636,-1.4642,-1.4645,-1.463,-1.4649,-1.466,-1.4652,-1.4726,-1.4706,-1.4715,-1.474,-1.4814,-1.4817,-1.4821,-1.4842,-1.4849,-1.4855,0,0,0,0,0,0,-1.4526,-1.4549,-1.4544,-1.4592,-1.4612,-1.4633,-1.4658,-1.4653,-1.4677,-1.4674,-1.4678,-1.4683,-1.4726,-1.4737,-1.4715,-1.4789,-1.4767,-1.4773,-1.478,-1.4787,-1.4792,-1.4789,-1.4697,0,0,0,0,0,-1.4535,-1.4564,-1.4582,-1.4623,-1.4633,-1.4644,-1.466,-1.4661,-1.4682,-1.469,-1.4704,-1.4724,-1.4752,-1.477,-1.4796,-1.4845,-1.485,-1.4867,-1.4872,-1.4877,-1.4882,-1.4908,-1.4916,-1.4834,-1.4834,-1.4834,0,0,-1.4556,-1.4572,-1.459,-1.4627,-1.4642,-1.4672,-1.4651,-1.4683,-1.4704,-1.4695,-1.4735,-1.4746,-1.4769,-1.4814,-1.4835,-1.4825,-1.4905,-1.4881,-1.4885,-1.4887,-1.4913,-1.492,-1.4927,-1.4837,-1.4836,-1.4836,0,0,-1.4608,-1.4623,-1.4658,-1.4674,-1.4698,-1.4704,-1.4713,-1.4735,-1.4741,-1.4782,-1.4775,-1.4801,-1.4848,-1.4865,-1.4879,-1.4936,-1.493,-1.4945,-1.4973,-1.4999,-1.5006,-1.5011,-1.5032,-1.5039,-1.495,-1.495,-1.495,0,-1.4631,-1.4675,-1.4677,-1.471,-1.4726,-1.4718,-1.4754,-1.4769,-1.48,-1.4811,-1.4799,-1.4858,-1.4873,-1.4922,-1.4936,-1.4948,-1.4958,-1.4943,-1.5004,-1.501,-1.5016,-1.5035,-1.5043,-1.4951,-1.4951,-1.4951,-1.4951,0,-1.4701,-1.4732,-1.4757,-1.4787,-1.4807,-1.484,-1.4848,-1.4867,-1.4866,-1.4873,-1.4914,-1.4932,-1.4961,-1.4973,-1.4972,-1.5022,-1.5015,-1.5003,-1.4982,-1.5025,-1.5044,-1.5051,-1.4954,-1.4953,-1.4953,-1.4952,0,0,-1.4769,-1.4798,-1.4808,-1.4821,-1.4846,-1.487,-1.4903,-1.4931,-1.4948,-1.4969,-1.4997,-1.5036,-1.5026,-1.5042,-1.5043,-1.5066,-1.511,-1.5052,-1.5052,-1.5062,-1.5166,-1.5175,-1.5183,-1.5106,-1.5107,-1.5108,-1.5164,0,-1.4824,-1.4882,-1.4885,-1.4938,-1.4966,-1.4959,-1.4987,-1.5005,-1.5013,-1.5038,-1.5046,-1.5075,-1.5058,-1.5068,-1.509,-1.51,-1.5131,-1.5096,-1.5132,-1.5133,-1.5127,-1.5193,-1.5203,-1.5254,-1.5171,-1.5172,-1.5173,0,-1.4896,-1.4919,-1.4975,-1.4996,-1.5007,-1.5033,-1.506,-1.5083,-1.5103,-1.5107,-1.5125,-1.5122,-1.5156,-1.5133,-1.5179,-1.5155,-1.5169,-1.5176,-1.5178,-1.5182,-1.5156,-1.5199,-1.5271,-1.5279,-1.5185,-1.5184,-1.5183,0,-1.494,-1.4985,-1.5024,-1.5036,-1.506,-1.5079,-1.509,-1.5108,-1.5125,-1.5148,-1.5159,-1.5185,-1.5199,-1.5219,-1.5224,-1.5206,-1.527,-1.5247,-1.5274,-1.5274,-1.5289,-1.5288,-1.5364,-1.5297,-1.5297,-1.5296,-1.5296,0,-1.5002,-1.5036,-1.5044,-1.5069,-1.5107,-1.5109,-1.5147,-1.5157,-1.5173,-1.5199,-1.5193,-1.5218,-1.5221,-1.5246,-1.525,-1.5287,-1.5294,-1.5298,-1.5299,-1.5299,-1.5299,-1.5309,-1.5306,-1.5299,-1.5298,-1.5298,-1.5297,0,-1.5058,-1.5065,-1.5107,-1.5126,-1.5132,-1.5159,-1.5176,-1.5199,-1.5205,-1.5238,-1.5246,-1.5256,-1.5285,-1.5291,-1.5325,-1.5327,-1.5372,-1.5369,-1.5366,-1.5366,-1.5393,-1.539,-1.5479,-1.5491,-1.5415,-1.5416,-1.5417,0,-1.5097,-1.5124,-1.5146,-1.5163,-1.5174,-1.5202,-1.5219,-1.5221,-1.5239,-1.5263,-1.5283,-1.5312,-1.5335,-1.5381,-1.5391,-1.5417,-1.5415,-1.5444,-1.5419,-1.5418,-1.5416,-1.5415,-1.5417,-1.545,-1.545,-1.5451,-1.5452,0,-1.5167,-1.5168,-1.5193,-1.5219,-1.524,-1.526,-1.5279,-1.5293,-1.5299,-1.5319,-1.5348,-1.5366,-1.5401,-1.5429,-1.5454,-1.5465,-1.546,-1.5459,-1.5467,-1.5468,-1.5465,-1.5467,-1.538,-1.5458,-1.5457,-1.5457,-1.5456,-1.5456,-1.5216,-1.5239,-1.5258,-1.5286,-1.53,-1.5318,-1.5341,-1.535,-1.5375,-1.5403,-1.5403,-1.5435,-1.5453,-1.5487,-1.55,-1.5525,-1.5515,-1.5527,-1.553,-1.5532,-1.5535,-1.5461,-1.5529,-1.5529,-1.5529,-1.5529,-1.5529,0,-1.5286,-1.5297,-1.5322,-1.535,-1.5371,-1.5363,-1.5384,-1.5402,-1.5431,-1.5448,-1.5471,-1.5504,-1.5531,-1.5543,-1.557,-1.5587,-1.5585,-1.5594,-1.5593,-1.5596,-1.5542,-1.5533,-1.5595,-1.5595,-1.5595,-1.5595,-1.5595,-1.5595,-1.5324,-1.5363,-1.5367,-1.5412,-1.5423,-1.5455,-1.5468,-1.5484,-1.5498,-1.5536,-1.5558,-1.5565,-1.5581,-1.5608,-1.5632,-1.5635,-1.5645,-1.5655,-1.5657,-1.5606,-1.56,-1.5593,-1.5585,-1.5657,-1.5657,-1.5709,-1.5709,-1.5709]},{"header":{"parameterUnit":"m.s-1","parameterCategory":1,"la1":30.2991,"la2":30.254,"lo1":-89.0895,"lo2":-89.0444,"dy":0.0017,"dx":0.0017,"nx":28,"ny":28,"refTime":"2023-10-05T21:00:00:Z","depth":0,"parameterNumber":3,"parameterNumberName":"V-component_of_WINDS"},"data":[0,0,0,0,0,0,0,0,0,0,0,0,0,0,0,0,0,0,0,0,0,0,0,0,0,0,0,0,0,0,0,0,0,0,0,0,0,0,0,0,0,0,0,0,0,0,0,0,0,0,0,0,0,0,0,0,0,0,-8.5342,-8.5343,0,-8.5448,-8.5449,-8.545,-8.5378,-8.5374,-8.5371,-8.5368,-8.5469,-8.5475,-8.5481,0,0,0,0,0,0,0,0,0,0,0,0,0,-8.5072,-8.5077,-8.5342,-8.5343,-8.5345,-8.5447,-8.5449,-8.545,-8.5378,-8.5374,-8.537,-8.5367,-8.5468,-8.5474,-8.5481,0,0,0,0,0,0,0,0,0,0,0,0,0,-8.5184,-8.5079,-8.5342,-8.5321,-8.532,-8.5447,-8.5449,-8.5451,-8.5379,-8.5374,-8.5369,-8.5365,-8.5465,-8.5474,-8.5482,-8.5633,0,0,-8.5508,-8.5512,0,0,0,0,0,0,0,0,-8.5178,-8.5194,-8.5323,-8.5323,-8.5322,-8.5395,-8.5391,-8.5511,-8.538,-8.5357,-8.5368,-8.5362,-8.5448,-8.5458,-8.5488,-8.5637,-8.5642,-8.5509,-8.5514,-8.5518,-8.552,0,0,0,0,0,0,0,-8.5171,-8.5189,-8.5383,-8.5325,-8.5325,-8.5305,-8.5315,-8.5413,-8.5428,-8.5358,-8.5353,-8.5367,-8.5447,-8.548,-8.549,-8.5643,-8.5509,-8.5516,-8.5522,-8.5525,-8.5922,-8.5927,0,0,0,0,0,0,-8.5165,-8.5183,-8.538,-8.5387,-8.5237,-8.5314,-8.5325,-8.5376,-8.5427,-8.543,-8.5371,-8.5363,-8.5468,-8.548,-8.5493,-8.5674,-8.5518,-8.5526,-8.5531,-8.5917,-8.5923,-8.5929,0,0,0,0,0,0,-8.516,-8.5184,-8.5376,-8.5284,-8.5307,-8.5324,-8.5381,-8.5381,-8.5414,-8.5437,-8.5438,-8.5403,-8.5464,-8.5481,-8.5599,-8.5676,-8.553,-8.5538,-8.591,-8.5919,-8.5926,-8.6036,0,0,0,0,0,0,-8.5152,-8.5182,-8.5241,-8.5286,-8.5312,-8.5483,-8.5386,-8.5386,-8.543,-8.5421,-8.5467,-8.547,-8.5462,-8.5587,-8.5608,-8.5685,-8.5544,-8.5904,-8.5914,-8.5924,-8.6025,-8.6046,-8.6065,0,0,0,0,0,-8.5143,-8.5266,-8.5244,-8.5268,-8.5386,-8.5487,-8.5502,-8.5492,-8.5436,-8.5495,-8.5509,-8.5468,-8.5664,-8.56,-8.5622,-8.5704,-8.5899,-8.5911,-8.5923,-8.6016,-8.6042,-8.6064,0,0,0,0,0,0,-8.5226,-8.5271,-8.5248,-8.5389,-8.5435,-8.5475,-8.5548,-8.552,-8.5581,-8.5569,-8.5552,-8.5563,-8.5688,-8.5707,-8.5634,-8.5853,-8.5772,-8.579,-8.5836,-8.586,-8.588,-8.5872,-8.5552,0,0,0,0,0,-8.5262,-8.5342,-8.5376,-8.5497,-8.5522,-8.5531,-8.5575,-8.5564,-8.5609,-8.5628,-8.5651,-8.5696,-8.5767,-8.5815,-8.5882,-8.6028,-8.6036,-8.6095,-8.6114,-8.613,-8.6146,-8.6225,-8.6251,-8.5969,-8.5969,-8.5969,0,0,-8.5334,-8.5369,-8.542,-8.5515,-8.5549,-8.5631,-8.5548,-8.5637,-8.5698,-8.564,-8.5755,-8.5774,-8.5822,-8.5955,-8.6015,-8.5975,-8.6226,-8.6146,-8.6159,-8.6165,-8.624,-8.6267,-8.6291,-8.5977,-8.5976,-8.5975,0,0,-8.5509,-8.5544,-8.5649,-8.5686,-8.574,-8.5746,-8.5772,-8.5816,-8.5827,-8.5942,-8.5901,-8.5971,-8.6095,-8.6132,-8.6166,-8.6357,-8.6321,-8.6379,-8.6482,-8.6559,-8.6582,-8.6601,-8.667,-8.6694,-8.6394,-8.6394,-8.6394,0,-8.5592,-8.5717,-8.5706,-8.5801,-8.5843,-8.5798,-8.5904,-8.5939,-8.6012,-8.6041,-8.5996,-8.6152,-8.6181,-8.6323,-8.637,-8.6399,-8.6427,-8.6374,-8.658,-8.6599,-8.6617,-8.6682,-8.6708,-8.6401,-8.64,-8.6399,-8.6399,0,-8.5816,-8.5903,-8.5981,-8.6056,-8.6107,-8.6207,-8.621,-8.6263,-8.6247,-8.6257,-8.6375,-8.6408,-8.6482,-8.6515,-8.6499,-8.6654,-8.6628,-8.6582,-8.6501,-8.6651,-8.6712,-8.6737,-8.6411,-8.6408,-8.6406,-8.6404,0,0,-8.6046,-8.6116,-8.6145,-8.6178,-8.6235,-8.6301,-8.6398,-8.6473,-8.6519,-8.657,-8.665,-8.6757,-8.6715,-8.6755,-8.6743,-8.6811,-8.696,-8.6756,-8.6757,-8.6793,-8.7134,-8.7169,-8.7198,-8.6937,-8.6942,-8.6946,-8.713,0,-8.6225,-8.6397,-8.6392,-8.6551,-8.6631,-8.659,-8.6674,-8.6717,-8.673,-8.6797,-8.6809,-8.6886,-8.6824,-8.6848,-8.6914,-8.6929,-8.7029,-8.6915,-8.7011,-8.7014,-8.7001,-8.723,-8.7267,-8.744,-8.7154,-8.7158,-8.7161,0,-8.6457,-8.652,-8.6688,-8.6735,-8.6768,-8.6845,-8.6913,-8.6979,-8.7027,-8.7031,-8.7076,-8.7054,-8.715,-8.7067,-8.72,-8.7123,-8.7161,-8.7175,-8.7181,-8.719,-8.7097,-8.7246,-8.7495,-8.7521,-8.7198,-8.7195,-8.7192,0,-8.6609,-8.6735,-8.6853,-8.6883,-8.694,-8.6995,-8.702,-8.7064,-8.7109,-8.7168,-8.7198,-8.7266,-8.7304,-8.7357,-8.7353,-8.7293,-8.7488,-8.7404,-8.7493,-8.7493,-8.7536,-8.7533,-8.7796,-8.756,-8.756,-8.7559,-8.7559,0,-8.6809,-8.6914,-8.6922,-8.6995,-8.7111,-8.7102,-8.7217,-8.7236,-8.7276,-8.735,-8.7317,-8.7387,-8.7377,-8.7447,-8.7444,-8.7555,-8.7572,-8.7577,-8.7575,-8.758,-8.758,-8.7606,-8.7594,-8.7566,-8.7565,-8.7563,-8.7562,0,-8.6999,-8.7008,-8.7134,-8.7179,-8.7193,-8.7277,-8.7314,-8.7382,-8.7391,-8.7486,-8.7507,-8.7522,-8.7603,-8.7604,-8.7695,-8.7694,-8.7829,-8.7813,-8.7814,-8.7811,-8.79,-8.7892,-8.8189,-8.8227,-8.7966,-8.7969,-8.7971,0,-8.7127,-8.7207,-8.7262,-8.7311,-8.7341,-8.7419,-8.7467,-8.7461,-8.7511,-8.7573,-8.7633,-8.7711,-8.7774,-8.7904,-8.7921,-8.7991,-8.7977,-8.8076,-8.7987,-8.7991,-8.7979,-8.7975,-8.7983,-8.8093,-8.8096,-8.8099,-8.8101,0,-8.7353,-8.7354,-8.7425,-8.7499,-8.7557,-8.7614,-8.7666,-8.7707,-8.7707,-8.7765,-8.7849,-8.7898,-8.7993,-8.807,-8.8138,-8.8162,-8.8132,-8.8129,-8.8153,-8.816,-8.8157,-8.8161,-8.7862,-8.8122,-8.812,-8.8118,-8.8117,-8.8116,-8.7516,-8.7586,-8.7636,-8.7717,-8.7756,-8.7806,-8.7873,-8.7893,-8.7963,-8.8042,-8.8033,-8.8127,-8.8172,-8.8261,-8.8291,-8.8362,-8.8327,-8.8363,-8.8372,-8.8381,-8.8391,-8.8146,-8.8374,-8.8373,-8.8373,-8.8372,-8.8372,0,-8.7741,-8.7772,-8.7846,-8.7923,-8.7986,-8.7954,-8.8011,-8.8065,-8.8148,-8.8195,-8.8258,-8.8354,-8.8429,-8.8454,-8.8526,-8.8579,-8.8567,-8.8598,-8.8594,-8.8601,-8.8417,-8.8389,-8.8607,-8.8607,-8.8607,-8.8607,-8.8607,-8.8607,-8.7866,-8.7984,-8.7991,-8.8127,-8.8156,-8.825,-8.8285,-8.8331,-8.8368,-8.8478,-8.8542,-8.8558,-8.8595,-8.8671,-8.8738,-8.8743,-8.8771,-8.8809,-8.8808,-8.8637,-8.8613,-8.8591,-8.8565,-8.8815,-8.8816,-8.8986,-8.8987,-8.8989]}]]